Location: Bismarck
(46.7731°N, 100.8200°W)
Time: 07:39:05
(UTC-05:00)

ISS - All Passes

Search period start: 20 August 2014 00:00
Search period end: 30 August 2014 00:00
Orbit: 413 x 419 km, 51.6° (Epoch: 20 August)

Date Brightness Start Highest point End Pass type
(mag) Time Alt. Az. Time Alt. Az. Time Alt. Az.
20 Aug - 16:02:07 10° SW 16:05:16 42° SE 16:08:27 10° ENE daylight
20 Aug - 17:38:47 10° W 17:42:01 47° NNW 17:45:16 10° ENE daylight
20 Aug - 19:16:06 10° WNW 19:19:12 34° N 19:22:18 10° ENE daylight
20 Aug - 20:52:55 10° WNW 20:56:16 74° NNE 20:59:36 10° ESE daylight
20 Aug - 22:30:07 10° W 22:32:43 21° SW 22:35:19 10° S visible
21 Aug - 15:14:02 10° SSW 15:16:54 27° SE 15:19:46 10° E daylight
21 Aug - 16:50:09 10° WSW 16:53:27 62° NNW 16:56:46 10° ENE daylight
21 Aug - 18:27:29 10° WNW 18:30:34 34° N 18:33:39 10° ENE daylight
21 Aug - 20:04:26 10° WNW 20:07:43 54° NNE 20:11:00 10° E daylight
21 Aug - 21:41:19 10° WNW 21:44:22 33° SW 21:47:24 10° SSE visible
22 Aug - 14:26:18 10° S 14:28:33 17° SE 14:30:49 10° E daylight
22 Aug - 16:01:35 10° WSW 16:04:55 87° NNW 16:08:16 10° ENE daylight
22 Aug - 17:38:49 10° WNW 17:41:56 35° N 17:45:02 10° ENE daylight
22 Aug - 19:15:55 10° WNW 19:19:08 43° NNE 19:22:20 10° E daylight
22 Aug - 20:52:41 10° WNW 20:55:57 52° SSW 20:59:12 10° SE daylight
23 Aug - 13:39:30 10° SE 13:40:15 11° SE 13:41:00 10° ESE daylight
23 Aug - 15:13:07 10° SW 15:16:24 63° SSE 15:19:43 10° ENE daylight
23 Aug - 16:50:07 10° W 16:53:17 40° NNW 16:56:28 10° ENE daylight
23 Aug - 18:27:21 10° WNW 18:30:30 37° N 18:33:38 10° ENE daylight
23 Aug - 20:04:07 10° WNW 20:07:27 81° SSW 20:10:47 10° ESE daylight
23 Aug - 21:41:51 10° W 21:43:44 14° SW 21:45:37 10° S visible
24 Aug - 14:24:49 10° SW 14:27:56 39° SE 14:31:05 10° ENE daylight
24 Aug - 16:01:24 10° W 16:04:39 49° NNW 16:07:54 10° ENE daylight
24 Aug - 17:38:44 10° WNW 17:41:49 34° N 17:44:55 10° ENE daylight
24 Aug - 19:15:34 10° WNW 19:18:54 71° NNE 19:22:14 10° ESE daylight
24 Aug - 20:52:42 10° W 20:55:23 23° SW 20:58:03 10° SSE daylight
25 Aug - 13:36:43 10° SSW 13:39:30 25° SE 13:42:18 10° E daylight
25 Aug - 15:12:43 10° WSW 15:16:02 65° NNW 15:19:21 10° ENE daylight
25 Aug - 16:50:03 10° WNW 16:53:08 34° N 16:56:13 10° ENE daylight
25 Aug - 18:27:01 10° WNW 18:30:17 52° NNE 18:33:33 10° E daylight
25 Aug - 20:03:52 10° WNW 20:06:57 35° SW 20:10:02 10° SSE daylight
26 Aug - 12:48:59 10° S 12:51:07 16° SE 12:53:14 10° E daylight
26 Aug - 14:24:07 10° WSW 14:27:26 88° SSE 14:30:47 10° ENE daylight
26 Aug - 16:01:19 10° WNW 16:04:26 36° N 16:07:33 10° ENE daylight
26 Aug - 17:38:26 10° WNW 17:41:38 42° NNE 17:44:49 10° E daylight
26 Aug - 19:15:11 10° WNW 19:18:28 56° SSW 19:21:44 10° SE daylight
27 Aug - 13:35:37 10° SW 13:38:53 58° SSE 13:42:10 10° ENE daylight
27 Aug - 15:12:33 10° W 15:15:44 41° NNW 15:18:55 10° ENE daylight
27 Aug - 16:49:48 10° WNW 16:52:56 36° N 16:56:03 10° ENE daylight
27 Aug - 18:26:34 10° WNW 18:29:54 86° SSW 18:33:14 10° ESE daylight
27 Aug - 20:04:10 10° W 20:06:13 15° SW 20:08:16 10° S daylight
28 Aug - 12:47:16 10° SSW 12:50:21 37° SE 12:53:27 10° ENE daylight
28 Aug - 14:23:47 10° W 14:27:02 51° NNW 14:30:18 10° ENE daylight
28 Aug - 16:01:07 10° WNW 16:04:12 34° N 16:07:17 10° ENE daylight
28 Aug - 17:37:57 10° WNW 17:41:17 67° NNE 17:44:36 10° ESE daylight
28 Aug - 19:15:02 10° W 19:17:48 24° SW 19:20:33 10° SSE daylight
29 Aug - 11:59:10 10° SSW 12:01:52 23° SE 12:04:36 10° E daylight
29 Aug - 13:35:03 10° WSW 13:38:22 69° NNW 13:41:41 10° ENE daylight
29 Aug - 15:12:22 10° WNW 15:15:27 34° N 15:18:32 10° ENE daylight
29 Aug - 16:49:21 10° WNW 16:52:36 50° NNE 16:55:52 10° E daylight
29 Aug - 18:26:10 10° WNW 18:29:18 38° SW 18:32:25 10° SSE daylight
